Regional Weather Roundup
Issued by NWS

Home | Current Version | Previous Version | Graphics & Text | Print | Product List | Glossary On
Versions: 1 2 3 4 5 6 7 8 9 10 11 12 13 14 15 16 17 18 19 20 21 22 23 24 25 26 27 28 29 30 31 32 33 34 35 36 37 38 39 40 41 42 43 44 45 46 47 48 49 50
000
ASUS43 KMPX 142301
RWRMN
WEATHER ROUNDUP FOR MINNESOTA
NATIONAL WEATHER SERVICE TWIN CITIES/CHANHASSEN MN
600 PM CDT SUN SEP 14 2014


NOTE: "FAIR" INDICATES FEW OR NO CLOUDS BELOW 12,000 FEET WITH NO
SIGNIFICANT WEATHER AND/OR OBSTRUCTIONS TO VISIBILITY. N/A MEANS
CURRENT SKY AND/OR WEATHER CONDITIONS ARE NOT AVAILABLE.

MNZ060>063-068>070-150000-
   Twin Cities Metro

CITY           SKY/WX    TMP DP  RH WIND       PRES   REMARKS
TWIN CITIES    PTSUNNY   60  39  45 NW9       30.11R
ST PAUL        SUNNY     60  38  43 W13       30.11S
CRYSTAL        MOSUNNY   62  40  44 W7        30.11R
BLAINE         PTSUNNY   63  43  48 W12       30.11R
LAKEVILLE      PTSUNNY   59  43  55 W6        30.11S
EDEN PRAIRIE   MOSUNNY   61  40  45 NW8       30.10S
SOUTH ST PAUL  MOSUNNY   62  37  40 W5        30.11R
LAKE ELMO      FAIR      61  39  44 W8        30.12R
$$
MNZ001>005-007-008-013>017-022>024-027-028-150000-
   Northwest Minnesota

CITY           SKY/WX    TMP DP  RH WIND       PRES   REMARKS
BEMIDJI        MOSUNNY   53  43  70 W10       30.09S
HALLOCK        MOSUNNY   55  39  54 NW8       30.09S
ROSEAU         PTSUNNY   54  46  76 NW14      30.07R
WARROAD        PTSUNNY   54  46  76 W12G18    30.07R
THIEF RVR FALL CLOUDY    54  45  71 NW5       30.09S
CROOKSTON      CLOUDY    54  45  71 NW6       30.11S
FOSSTON        PTSUNNY   54  43  66 W5        30.10S
DETROIT LAKES  MOSUNNY   54  43  66 NW7       30.13R
MOORHEAD       PTSUNNY   57  43  58 N9        30.13R
PARK RAPIDS    MOSUNNY   53  43  68 NW9       30.11R
MAHNOMEN       FAIR      55  42  62 N5        30.11S
$$
MNZ006-009>011-018-025>026-150000-
   North Central Minnesota

CITY           SKY/WX    TMP DP  RH WIND       PRES   REMARKS
BAUDETTE       CLOUDY    51  44  77 VRB6      30.05R
FLAG ISLAND    CLOUDY    52  46  82 W12       30.03S
INTL FALLS     SUNNY     56  45  66 CALM      30.02S
WASKISH        SUNNY     55  46  71 SW15G22   30.06R
BIG FORK       MOSUNNY   57  43  58 SW10      30.05S
LONGVILLE      CLOUDY    52  45  76 SW7       30.09S
GRAND RAPIDS   MOSUNNY   55  39  54 W8        30.07S
CRANE LAKE     SUNNY     52  43  71 CALM      30.04R
ORR            PTSUNNY   55  43  62 CALM      30.01S
COOK           PTSUNNY   54  45  71 W6        30.04S
WALKER         CLOUDY    53  41  63 W10       30.09S
$$
MNZ012-019>021-037-150000-
   Northeast Minnesota

CITY           SKY/WX    TMP DP  RH WIND       PRES   REMARKS
DULUTH         MOSUNNY   57  41  55 W14       30.05R
ELY            SUNNY     52  45  76 W8        30.02S
HIBBING        CLOUDY    55  42  61 N12       30.05R
EVELETH        LGT RAIN  50  46  87 W6        30.05S
DULUTH HARBOR  PTSUNNY   61  45  55 NW13      30.06R
TWO HARBORS    MOSUNNY   57  41  54 W3        30.02S
SILVER BAY     SUNNY     54  45  71 W6        30.02R
GRAND MARAIS     N/A     54  46  74 VRB6      29.98R
G MARAIS ARPRT MOSUNNY   50  41  71 W9        29.99R
$$
MNZ029>031-032-039>041-046>048-054>057-064-150000-
   West Central Minnesota

CITY           SKY/WX    TMP DP  RH WIND       PRES   REMARKS
FERGUS FALLS   CLOUDY    57  41  54 CALM      30.12S
WHEATON        PTSUNNY   55  43  62 W6        30.14S
MORRIS         MOSUNNY   61  41  48 NW8       30.12S
ALEXANDRIA     PTSUNNY   56  42  59 W7        30.13S
ELBOW LAKE     FAIR      56  43  61 CALM      30.11F
WADENA         PTSUNNY   54  43  66 CALM      30.11S
GLENWOOD       PTSUNNY   55  43  62 NW8       30.13S
APPLETON       MOSUNNY   61  39  44 N6        30.11F
BENSON         MOSUNNY   57  45  62 N3        30.13S
ORTONVILLE     MOSUNNY   59  39  47 N5        30.12S
MADISON        PTSUNNY   63  43  48 W3        30.12S
WILLMAR        FAIR      59  45  58 W6        30.14S
$$
MNZ033>034-036-042>043-049>051-058-059-150000-
   Central Minnesota

CITY           SKY/WX    TMP DP  RH WIND       PRES   REMARKS
ST CLOUD       PTSUNNY   60  42  51 NW9       30.12R
SAUK CENTRE    MOCLDY    55  40  57 NW8       30.13S
PAYNESVILLE    PTSUNNY   56  42  57 W9        30.12F
AITKIN         CLOUDY    57  45  62 W3        30.08S
PINE RIVER     CLOUDY    52  45  76 W3        30.13S
BRAINERD       CLOUDY    53  42  66 NW8       30.11S
STAPLES        CLOUDY    52  43  71 NW6       30.12R
LONG PRAIRIE   CLOUDY    54  41  62 W6        30.13R
LITTLE FALLS   CLOUDY    54  41  62 NW7       30.12R
LITCHFIELD       N/A     57  45  62 W6        30.13S
BUFFALO        MOSUNNY   60  42  51 W8        30.13R
MAPLE LAKE     MOSUNNY   60  44  57 W7        30.13S
$$
MNZ037-044-045-052-053-150000-
   East Central Minnesota

CITY           SKY/WX    TMP DP  RH WIND       PRES   REMARKS
PRINCETON      PTSUNNY   61  43  51 CALM      30.11R
MORA           PTSUNNY   55  43  62 NW8       30.12R
CAMBRIDGE      PTSUNNY   61  45  55 W7        30.09R
RUSH CITY      PTSUNNY   58  45  60 W5        30.10R
MOOSE LAKE     MOSUNNY   55  41  58 W5        30.06S
HINCKLEY       FAIR      57  43  58 NW7       30.10R
CLOQUET        MOSUNNY   57  41  54 W9        30.07R
MCGREGOR       CLOUDY    54  45  71 W8        30.09R
$$
MNZ071>073-080-081-089-090-097-098-150000-
   Southwest Minnesota

CITY           SKY/WX    TMP DP  RH WIND       PRES   REMARKS
MONTEVIDEO     PTSUNNY   61  43  51 CALM      30.13S
GRANITE FALLS  CLOUDY    56  43  60 CALM      30.14S
CANBY          CLOUDY    56  43  62 W3        30.13S
MARSHALL       CLOUDY    54  45  71 W7        30.13S
REDWOOD FALLS  CLOUDY    58  41  53 NW5       30.12S
OLIVIA         CLOUDY    57  43  58 NW3       30.13R
PIPESTONE      CLOUDY    55  43  62 NE3       30.12S
WINDOM         CLOUDY    61  43  51 N12       30.13R
WORTHINGTON    CLOUDY    63  43  48 N6        30.12S
JACKSON        CLOUDY    64  41  42 CALM      30.11F
TRACY          CLOUDY    54  48  82 CALM      30.14S
SLAYTON        CLOUDY    57  42  57 CALM      30.13F
$$
MNZ065>067-074>077-082>085-091>093-150000-
   South Central Minnesota

CITY           SKY/WX    TMP DP  RH WIND       PRES   REMARKS
MANKATO        CLOUDY    61  41  48 NW7       30.12S
NEW ULM        LGT RAIN  57  50  77 CALM      30.13S
ST JAMES       CLOUDY    61  43  51 N8        30.13F
FAIRMONT       CLOUDY    64  43  45 N7        30.11S
GLENCOE        CLOUDY    60  39  45 W5        30.12S
FARIBAULT      CLOUDY    63  39  42 W3        30.12S
OWATONNA       CLOUDY    61  45  55 NW6       30.12S
WASECA         CLOUDY    59  37  44 NW7       30.13S
ALBERT LEA     PTSUNNY   63  48  59 CALM      30.11S
$$
MNZ078>079-086>088-094>096-150000-
   Southeast Minnesota

CITY           SKY/WX    TMP DP  RH WIND       PRES   REMARKS
ROCHESTER      PTSUNNY   63  49  60 W6        30.12R
RED WING       SUNNY     64  37  36 NW7       30.09S
STANTON        MOSUNNY   62  40  45 NW7       30.11R
DODGE CENTER   PTSUNNY   63  46  55 NW6       30.11S
WINONA         MOSUNNY   64  50  59 NW7       30.09R
AUSTIN         MOSUNNY   64  52  63 W7        30.11R
PRESTON        PTSUNNY   63  55  74 W7        30.11R
$$
ABBREVIATIONS USED IN REMARKS
   TC - TEMPERATURES IN CELSIUS
  WCI - WIND CHILL INDEX
   HX - HEAT INDEX
  VSB - VISIBILITY
$$



USA.gov is the U.S. government's official web portal to all federal, state and local government web resources and services.